Home > Weather > Drummondville > Past weeks

Flag for Canada Past Weather in Drummondville, Quebec, Canada — Yesterday and Last 2 Weeks

Now
62 °F

Cool.


Feels Like: 62 °F
Forecast: 60 / 76 °F
Wind: 5 mph from Northeast

Location: Nicolet

Current Time: Jul 29, 2016 at 6:25:14 AM

Latest Report: Jul 29, 2016 at 5:00 AM


Visibility: N/A

Pressure: 29.92 "Hg

Humidity: 71%

Dew Point: 53 °F

Location of DrummondvilleLocation

Past Weather in Drummondville — Graph

°F

Drummondville Temperature Yesterday

Maximum temperature yesterday: 78 °F (at 4:00 PM)
Minimum temperature yesterday: 64 °F (at 11:00 PM)
Average temperature yesterday: 71 °F

High & Low Weather Summary for the Past Weeks

 TemperatureHumidityPressure
High83 °F (Jul 22, 3:00 PM)99% (Jul 26, 3:00 AM)30.14 "Hg (Jul 26, 3:00 AM)
Low58 °F (Jul 24, 6:00 AM)46% (Jul 19, 2:00 PM)29.60 "Hg (Jul 14, 6:00 PM)
Average70 °F76%29.87 "Hg
* Reported Jul 14 5:00 AM — Jul 29 5:00 AM, Drummondville, Weather by CustomWeather, © 2016

Note: Actual official high and low records may vary slightly from our data, if they occured in-between our weather recording intervals... More about our weather records

Advertising

Drummondville Weather History for the Previous 24 Hours

Scroll right to see more
 ConditionsComfort  
Time TempWeatherWind HumidityBarometerVisibility
5:00 AM
Fri, Jul 29
62 °FCool.5 mph71%29.92 "HgN/A
4:00 AM63 °FMild.3 mph74%29.91 "HgN/A
3:00 AM64 °FMild.3 mph73%29.90 "HgN/A
2:00 AM64 °FMild.3 mph76%29.90 "HgN/A
1:00 AM67 °FMild.3 mph72%29.91 "HgN/A
12:00 AM64 °FMild.5 mph95%29.90 "HgN/A
11:00 PM
Thu, Jul 28
64 °FMild.1 mph92%29.88 "HgN/A
10:00 PM65 °FMild.1 mph93%29.88 "HgN/A
9:00 PM68 °FMild.1 mph88%29.87 "HgN/A
8:00 PM72 °FMild.1 mph76%29.87 "HgN/A
7:00 PM77 °FWarm.2 mph62%29.87 "HgN/A
6:00 PM76 °FMild.5 mph58%29.86 "HgN/A
5:00 PM78 °FWarm.3 mph59%29.86 "HgN/A
4:00 PM78 °FWarm.5 mph54%29.86 "HgN/A
3:00 PM78 °FWarm.3 mph52%29.87 "HgN/A
2:00 PM76 °FMild.3 mph63%29.88 "HgN/A
1:00 PM75 °FMild.3 mph57%29.90 "HgN/A
12:00 PM73 °FMild.5 mph67%29.89 "HgN/A
11:00 AM71 °FMild.5 mph67%29.89 "HgN/A
10:00 AM71 °FMild.2 mph69%29.89 "HgN/A
9:00 AM70 °FMild.3 mph69%29.89 "HgN/A
8:00 AM69 °FMild.2 mph78%29.89 "HgN/A
7:00 AM68 °FMild.2 mph78%29.88 "HgN/A
6:00 AM66 °FMild.2 mph85%29.87 "HgN/A
Weather by CustomWeather, © 2016

See weather overviewHow to use our weather pages